EUTE 1-F1 (ECS 1)

Satellite information

Favourite Embed

Satellite Type and Status

PAYLOADIN ORBIT

Key statistics

Satellite EUTE 1-F1 (ECS 1) at a glance.

Uptime

15476

Days in orbit

Revolutions

≈ 1.0

Per day

Orbit

OTHER

Other

Inclination

12.1

Latest

Satellite identification and parameters

Extended collection of information and parameters for EUTE 1-F1 (ECS 1).

Object identification

Identified? True

Debris? False

Object name: EUTE 1-F1 (ECS 1)

International designator: 1983-058A

Object number (NORAD): 14128

Object ID (CCSDS): 14128

Country: EUROPEAN TELECOMMUNICATIONS SATELLITE ORGANIZATION (EUTELSAT) (EUTE)

Current information (Y/N): Y

RCS size: LARGE

Orbital parameters

Period: 1456.497 minutes

Inclination: 12.1346 deg

SMA: 42563.105 km

Apoapsis: 36233.184 km

Periapsis: 36136.757 km

RAAN: 331.2427 deg

Eccentricy: 0.00113275

Argument of periapsis: 184.8963 deg

Mean anomaly: 175.0693 deg

Mean motion: 0.98867329 rev/day

Mean motion (dot): 0.0000005 rev/day2

B* drag term: 0.0 1/REarth

Two-line elements (TLE)

Creation date: Oct. 28, 2025, 7:11 p.m.

Reference frame: TEME

Reference center: EARTH

Epoch: Oct. 28, 2025, 2:50 p.m. UTC

TLE line 0: 0 EUTE 1-F1 (ECS 1)

TLE line 1: 1 14128U 83058A 25301.61860007 .00000050 00000-0 00000-0 0 9994

TLE line 2: 2 14128 12.1346 331.2427 0011328 184.8963 175.0693 0.98867329 44428

Live tracking on map

Real-time ground track for satellite EUTE 1-F1 (ECS 1).

In-orbit conjunctions

A list of the most updated potential collisions computed for object EUTE 1-F1 (ECS 1).

Target Orbit TCA Probability of collision Miss distance Type
EUTE 2-F2 OTHER 2025-01-19 16:34:33 TBA 4454.0 (m) PAYLOAD

Associated space launch

Geostationary communications satellite

EUTE 1-F1 (ECS 1) was lifted into orbit during the mission ‘Ariane 1 | ECS 1’, on board a Ariane 1 space rocket.

The launch took place on June 16, 1983, 11:59 a.m. from Ariane Launch Area 1 (ELV).

For more information about the launch, click the button.

Launch to space Ariane 1 | ECS 1
Ariane 1 | ECS 1

Agency: N/A

Status: Launch Successful

Launch date: June 16, 1983, 11:59 a.m. UTC

Rocket: Ariane 1

Launch pad: Ariane Launch Area 1 (ELV)

Location: Guiana Space Centre, French Guiana

...

Latest news about this satellite

There are no fresh news available about this satellite. Check back as we update our databases every day.


Newsletter sign-up

Weekly statistics, charts and insights to help you stay on top of the space industry.